This demonstration page uses our WeatherBlox Daily Observations layout. Learn more.

39.29038, -76.61219

Hourly Observations for August 2, 2020

Temp ( °F °C ) Dew Point ( °F °C ) Humidity (%) Winds ( mph kmh ) Pressure ( in mb ) Visibility ( mi km ) Precip ( " mm )
12:18 am 00:18 Cloudy 80 26.7 74 23.3 82 82 SE 6 9 29.89 1012 10 16.0934 0 0
12:54 am 00:54 Mostly Cloudy 80 26.7 75 23.9 85 85 SSE 3 6 29.9 1012 10 16.0934 0 0
1:54 am 01:54 Cloudy 80 26.7 76 24.4 87 87 SE 5 7 29.89 1012 10 16.0934 0.001 0.001
2:54 am 02:54 Mostly Cloudy 80 26.7 76 24.4 87 87 SSE 6 9 29.88 1012 10 16.0934 0 0
3:54 am 03:54 Cloudy 80 26.7 74 23.3 82 82 SSE 8 13 29.87 1011 10 16.0934 0 0
4:40 am 04:40 Mostly Cloudy 79 26.1 74 23.3 85 85 SSE 7 11 29.85 1011 10 16.0934 0 0
4:54 am 04:54 Mostly Cloudy 78 25.6 74 23.3 87 87 SSE 5 7 29.86 1011 10 16.0934 0 0
5:43 am 05:43 Mostly Cloudy 79 26.1 74 23.3 85 85 SSW 7 11 29.86 1011 10 16.0934 0 0
5:54 am 05:54 Mostly Cloudy 79 26.1 74 23.3 85 85 SSW 6 9 29.87 1011 10 16.0934 0 0
6:54 am 06:54 Cloudy 79 26.1 74 23.3 85 85 VRB 3 6 29.88 1012 10 16.0934 0 0
7:54 am 07:54 Cloudy 79 26.1 74 23.3 85 85 SSW 7 11 29.88 1012 10 16.0934 0 0
8:54 am 08:54 Cloudy 81 27.2 74 23.3 79 79 SSW 5 7 29.89 1012 10 16.0934 0 0
9:54 am 09:54 Mostly Cloudy 84 28.9 74 23.3 72 72 SSW 9 15 29.9 1012 10 16.0934 0 0
10:30 am 10:30 Partly Cloudy 85 29.4 74 23.3 70 70 S 6 9 29.88 1012 10 16.0934 0 0
10:54 am 10:54 Partly Cloudy 86 30 75 23.9 70 70 SSW 7 11 29.89 1012 10 16.0934 0 0
11:54 am 11:54 Partly Cloudy 89 31.7 75 23.9 63 63 SSW 9 15 29.89 1012 10 16.0934 0 0
12:54 pm 12:54 Partly Cloudy 90 32.2 74 23.3 59 59 S 9 15 29.87 1012 10 16.0934 0 0
1:54 pm 13:54 Partly Cloudy 91 32.8 73 22.8 56 56 WSW 13 20 29.87 1012 10 16.0934 0 0
2:54 pm 14:54 Partly Cloudy 92 33.3 71 21.7 51 51 SSW 10 17 29.85 1011 10 16.0934 0 0
3:54 pm 15:54 Partly Cloudy 92 33.3 71 21.7 51 51 SSW 15 24 29.84 1011 10 16.0934 0 0
4:54 pm 16:54 Partly Cloudy 93 33.9 70 21.1 47 47 SSW 15 24 29.84 1011 10 16.0934 0 0
5:54 pm 17:54 Partly Cloudy 92 33.3 70 21.1 49 49 SSW 10 17 29.84 1011 10 16.0934 0 0
6:54 pm 18:54 Partly Cloudy 89 31.7 73 22.8 59 59 SSW 9 15 29.85 1011 10 16.0934 0.001 0.001
7:54 pm 19:54 Mostly Sunny 87 30.6 71 21.7 59 59 SW 9 15 29.86 1011 10 16.0934 0 0
8:54 pm 20:54 Mostly Clear 85 29.4 71 21.7 63 63 S 6 9 29.88 1012 10 16.0934 0 0
9:54 pm 21:54 Mostly Clear 84 28.9 71 21.7 65 65 SSW 5 7 29.9 1012 10 16.0934 0 0
10:54 pm 22:54 Partly Cloudy 82 27.8 71 21.7 69 69 SSW 5 7 29.91 1013 10 16.0934 0 0
11:54 pm 23:54 Mostly Cloudy 82 27.8 72 22.2 72 72 WSW 5 7 29.94 1014 10 16.0934 0 0

Powered by AerisWeather